Location: Alpha Ridge Park
(39.3209°N, 76.9128°W)
Time: 07:35:07
(UTC-04:00)

Vanguard 2 Rocket - Pass Details

Date: 25 May 2019
Orbit: 554 x 3326 km, 32.9° (Epoch: 19 June)

Event Time Altitude Azimuth Distance (km) Brightness Sun altitude
Rises 03:15:35 0° 198° (SSW) 7,094 - -22.4°
Reaches altitude 10° 03:21:50 10° 186° (S) 6,236 - -21.8°
Exits shadow 03:24:09 14° 181° (S) 5,951 10.5 -21.5°
Maximum altitude 03:35:54 24° 142° (SE) 5,019 10.5 -20.1°
Drops below altitude 10° 03:48:18 10° 97° (E) 5,519 11.3 -18.6°
Sets 03:53:12 0° 85° (E) 6,154 11.9 -18.0°
